Theta_e
311 311 310 310 309 309 308 307 307 307 307 307 307 308 308 308 308 307 306 303 305 306 307 307 306 306 305 307 309 313 322 324 324 324 326 320 323 317 313 318 309 308 310 306 305
312 312 311 310 309 308 308 307 306 306 307 306 306 307 307 307 307 306 301 301 302 304 308 304 304 303 303 307 308 316 320 323 319 320 322 321 316 312 314 313 312 309 304 304 305
315 314 313 310 309 308 307 307 306 306 305 306 306 306 306 306 304 304 303 303 307 304 308 306 305 303 304 305 309 312 319 319 320 319 319 321 315 310 312 316 312 314 308 302 303
307 310 313 313 311 308 307 307 307 306 305 305 305 306 306 306 302 301 305 306 312 310 306 303 302 304 304 305 305 313 314 317 319 320 315 315 316 312 311 316 314 310 305 302 303
309 309 311 312 311 309 307 306 307 306 305 305 305 305 306 304 304 300 301 309 310 308 303 302 302 303 305 304 305 310 312 312 314 315 314 311 312 314 311 311 308 306 303 302 303
309 309 309 310 310 309 307 307 306 306 306 304 305 305 305 304 301 299 300 300 306 305 302 301 302 302 304 305 305 306 306 306 308 312 313 315 314 314 314 309 309 305 305 302 302
305 309 310 309 309 309 307 307 307 307 306 304 304 305 305 304 301 299 297 297 298 302 300 301 302 303 303 306 304 306 307 306 305 308 311 310 312 311 312 310 310 309 305 302 300
303 305 308 310 310 310 308 307 306 307 306 305 304 304 303 303 302 302 301 298 297 298 300 301 302 301 304 304 304 305 305 308 307 306 309 308 314 308 308 306 307 306 305 303 300
303 303 304 308 309 310 308 307 307 306 305 304 304 303 302 301 298 299 302 296 297 298 299 301 302 302 303 304 304 303 306 304 306 303 306 307 310 306 303 302 303 301 301 301 302
302 304 303 304 309 310 308 307 306 302 303 304 303 301 300 299 296 296 296 296 297 298 299 300 300 301 300 302 307 306 304 303 303 303 305 307 306 303 302 303 302 301 300 300 302
303 305 303 304 306 307 307 305 298 301 299 297 300 298 296 296 295 295 296 297 298 298 298 299 302 302 302 302 304 302 303 303 302 302 304 303 305 303 304 300 299 299 300 300 300
306 304 305 305 306 307 305 301 298 298 300 296 296 299 300 297 295 294 295 296 298 298 298 300 300 300 299 301 303 301 301 301 301 301 303 300 299 298 299 300 299 301 300 300 299
302 306 307 305 306 306 302 301 298 295 295 295 295 295 295 298 298 297 295 296 297 298 298 298 298 298 300 301 302 302 302 301 301 300 299 298 299 298 297 297 298 298 299 297 296
301 305 306 306 305 300 300 300 296 295 291 295 295 296 293 295 297 296 296 297 297 298 299 299 298 298 298 299 301 301 301 301 301 301 301 297 299 296 297 297 296 296 294 293 292
299 305 304 304 302 301 299 297 295 295 300 296 293 293 293 294 293 293 296 296 299 298 299 298 298 297 298 299 299 300 299 300 301 301 299 298 297 296 296 297 297 297 297 294 291
297 297 303 303 300 296 295 294 296 294 295 294 291 292 293 294 294 293 296 297 297 299 299 298 293 296 298 295 298 298 297 297 295 296 299 297 298 301 296 298 298 298 297 293 291
295 297 298 299 296 295 296 296 298 298 293 294 292 292 293 294 294 293 294 295 298 299 298 297 295 293 295 297 297 297 298 303 304 302 304 294 296 302 298 296 296 296 293 292 292
294 296 296 295 295 295 295 298 298 292 290 295 294 294 293 294 294 293 293 294 294 295 299 298 298 294 294 297 300 298 301 307 308 301 299 294 298 298 296 295 294 293 291 291 290
289 295 294 293 294 295 297 299 300 295 296 296 296 295 293 294 294 293 292 293 296 295 298 300 300 291 291 292 295 298 300 304 305 297 305 300 296 296 295 295 293 292 290 291 291
290 294 292 292 293 294 297 297 295 297 297 298 298 299 301 298 295 296 296 295 295 296 296 297 299 291 290 291 292 296 298 303 304 304 306 302 296 299 296 295 293 292 291 292 293
290 284 290 291 293 295 295 287 290 295 298 299 300 298 296 296 298 297 300 299 297 296 296 297 300 293 291 293 296 294 297 299 302 305 306 298 299 295 296 295 293 291 291 292 291
287 280 289 291 287 284 291 288 295 295 296 298 299 299 299 298 298 296 298 299 297 295 298 298 300 299 293 289 288 290 297 302 303 299 297 299 299 291 292 291 291 290 292 291 290
278 281 289 292 283 281 284 290 295 295 296 296 297 298 299 299 300 299 298 293 292 296 297 299 299 299 300 294 290 290 292 295 297 299 299 300 299 291 290 290 291 291 292 290 290
282 281 278 289 289 288 283 286 288 292 295 294 294 295 296 298 298 297 300 300 297 297 299 299 299 297 299 298 294 293 293 294 298 298 297 297 297 294 293 292 292 293 292 291 289
286 284 280 278 278 284 288 290 290 289 288 292 293 294 292 292 292 297 296 295 296 296 297 298 300 291 293 295 294 296 293 294 297 296 297 297 297 295 293 293 293 294 292 292 288
288 284 281 276 280 285 284 283 289 288 288 287 292 290 290 290 290 293 291 293 294 293 294 294 296 292 292 296 297 299 298 294 294 295 297 296 295 293 294 293 294 293 293 292 288
286 284 286 287 279 283 281 285 288 288 286 291 290 289 286 288 290 288 289 289 290 290 293 293 295 295 293 294 297 298 296 294 293 293 297 298 297 294 294 296 296 296 293 290 287
Wind_Speed
15 16 15 15 16 17 18 18 18 19 19 19 20 20 20 21 23 24 12 22 14 23 5 6 7 7 6 4 4 4 3 8 8 8 6 2 5 3 0 2 3 5 3 2 10
19 19 21 17 17 17 17 18 18 19 19 19 20 19 19 20 25 20 36 26 21 17 18 13 6 6 3 5 5 5 6 10 7 7 5 3 6 6 4 5 5 4 2 6 23
23 25 22 19 18 17 17 19 19 19 19 20 20 19 18 19 6 10 6 11 21 18 16 17 5 6 5 4 5 6 11 4 4 7 5 4 3 6 6 8 7 9 6 8 9
23 22 26 24 22 19 17 18 19 19 20 19 19 18 17 11 7 5 7 3 12 15 13 8 5 6 6 7 6 5 8 7 5 6 5 5 4 5 8 8 4 9 5 8 13
25 21 22 24 22 21 17 17 17 19 19 19 19 15 11 5 12 19 12 6 11 15 13 6 5 5 7 6 4 5 4 6 10 6 5 4 8 8 9 9 3 2 6 11 12
24 20 22 22 21 19 17 17 19 19 19 19 18 15 6 14 9 11 9 7 9 17 10 9 7 6 5 6 9 4 8 7 6 6 6 7 5 5 9 6 10 8 10 10 13
25 20 17 17 20 19 17 18 20 21 20 17 16 14 12 25 14 12 10 9 10 11 5 13 6 4 3 3 7 3 4 4 6 4 6 5 9 12 10 6 9 11 11 10 12
24 22 17 18 21 23 20 18 20 22 21 18 12 14 10 13 17 20 18 18 11 11 11 3 14 4 3 4 3 3 2 8 5 10 5 9 21 10 11 7 12 12 10 9 9
26 22 19 17 23 22 20 20 24 25 19 14 9 6 12 9 8 11 17 8 7 6 6 2 6 5 1 2 3 3 5 6 6 10 4 8 9 7 4 8 11 9 10 9 9
27 25 21 18 17 21 17 23 27 16 5 5 7 2 8 5 3 3 8 11 3 3 1 4 3 3 2 5 15 8 5 6 7 5 3 5 13 10 5 5 9 9 9 9 9
29 24 20 17 17 18 18 9 6 3 2 8 8 7 5 5 4 5 5 8 4 2 7 3 5 13 20 15 6 2 5 6 3 5 5 8 14 9 14 6 10 11 12 13 15
32 22 17 13 15 10 7 1 4 4 11 14 23 19 19 4 5 5 9 6 5 6 4 3 14 18 5 9 11 5 8 14 4 3 5 3 14 10 10 11 10 17 16 16 9
28 23 18 11 9 7 2 3 3 1 5 8 5 6 5 14 11 5 8 4 5 7 11 12 5 8 10 6 13 17 19 14 4 2 3 3 15 6 9 8 11 12 14 9 8
29 25 12 2 0 3 3 4 3 1 3 7 3 2 2 3 4 7 13 4 5 12 7 9 5 4 5 14 15 19 12 5 5 4 6 2 9 5 5 8 6 9 6 9 8
28 17 6 3 4 3 6 3 3 1 5 3 3 3 3 1 3 5 7 4 6 5 6 10 7 7 15 13 12 11 6 10 8 8 3 4 2 5 1 6 11 5 3 3 5
24 22 14 11 5 5 3 1 2 4 7 6 4 5 3 2 2 3 4 5 1 3 4 4 5 5 7 3 10 7 5 5 4 4 1 8 7 10 6 9 2 3 1 3 5
24 19 17 11 3 5 6 3 1 4 6 7 4 4 3 3 3 5 4 3 5 4 14 2 5 3 2 4 4 1 6 2 1 2 8 3 7 19 5 6 6 6 6 3 3
26 12 9 7 5 3 2 0 5 4 6 4 4 6 4 3 5 4 3 4 7 4 3 8 8 10 6 5 8 11 5 5 8 4 2 3 7 7 4 3 5 6 7 5 6
26 8 4 9 3 2 1 4 4 4 3 7 8 3 4 4 3 2 4 4 6 15 8 6 7 1 4 3 1 6 4 9 4 2 1 4 7 9 6 2 2 7 7 6 5
22 8 3 8 3 2 1 6 4 3 0 1 2 2 4 4 4 3 3 3 4 6 3 4 6 2 1 1 1 2 2 5 2 5 5 6 5 8 1 6 6 6 7 6 3
9 4 1 4 1 1 3 7 5 4 2 4 2 4 6 4 5 4 4 4 2 3 5 3 1 1 0 6 12 1 3 3 2 3 5 2 6 7 8 10 16 9 7 6 6
2 3 4 2 1 1 3 5 3 4 4 6 5 7 6 3 4 5 7 6 4 3 1 3 2 6 7 1 2 1 7 17 5 6 3 1 8 3 8 8 11 9 6 6 5
1 3 3 1 3 3 5 5 3 3 5 3 3 4 1 3 5 5 3 2 6 2 4 1 3 2 5 2 2 3 4 2 1 2 6 8 7 5 5 8 7 8 6 5 4
2 2 4 1 3 2 2 6 4 4 4 6 6 2 3 4 7 4 3 4 5 5 3 4 5 6 4 3 1 1 2 5 4 7 8 11 2 2 1 6 6 4 5 5 5
3 5 4 3 4 2 1 4 7 4 3 4 4 2 4 4 4 3 5 5 5 9 4 2 4 2 5 5 4 5 5 6 13 13 10 12 13 7 6 4 4 2 1 4 5
4 3 1 3 2 4 4 4 5 4 3 6 7 4 1 2 5 3 7 4 4 2 6 4 3 2 4 7 8 8 11 10 14 13 19 16 19 4 1 3 4 5 5 4 4
8 6 4 7 4 6 6 7 8 7 5 5 3 3 3 5 3 6 8 10 11 10 1 2 3 1 4 5 2 8 13 15 7 7 15 13 16 7 2 5 7 5 6 6 3
Wind_Direction
319 319 317 322 320 323 319 319 319 320 319 319 319 317 315 316 309 299 250 244 245 251 233 193 197 190 168 183 164 138 207 240 221 175 242 180 189 180 328 165 223 201 208 310 171
309 312 317 305 311 315 313 314 314 315 318 320 320 316 317 318 310 274 267 260 245 238 219 194 195 161 184 199 185 174 219 234 186 200 223 227 193 183 163 214 229 247 164 116 158
302 299 299 298 305 305 311 312 313 315 318 318 320 317 318 323 308 246 287 273 227 226 221 220 199 159 206 173 193 200 229 231 230 220 202 221 231 188 183 243 207 209 180 151 158
310 300 288 298 304 305 307 316 312 315 317 316 318 318 319 322 274 350 343 25 179 208 197 180 162 179 206 207 207 221 231 206 207 206 170 210 162 208 196 233 202 216 154 166 180
327 305 284 290 299 299 303 312 314 315 315 315 315 315 323 279 253 291 306 206 187 187 195 174 172 169 187 208 204 229 224 217 229 217 218 148 219 221 241 229 188 136 171 191 199
335 316 290 283 294 292 298 304 310 313 313 313 312 306 273 263 258 292 282 249 209 193 186 181 201 213 240 218 192 228 215 237 234 225 211 203 244 152 251 184 228 216 226 213 209
331 331 300 292 290 289 294 296 301 305 306 306 304 292 256 245 261 289 302 273 250 211 181 210 211 184 188 282 222 255 260 280 226 205 228 134 268 226 229 172 227 233 237 225 223
332 328 322 292 292 284 293 293 297 299 299 296 290 282 258 260 273 271 266 268 253 233 216 254 210 212 209 280 344 200 178 240 204 164 221 155 252 239 229 197 241 242 253 241 234
331 322 313 305 285 283 284 294 304 299 291 279 258 223 265 285 263 283 243 224 228 232 230 140 139 182 179 155 323 253 219 216 273 195 138 192 258 247 164 193 248 254 253 250 256
339 324 312 299 320 274 281 296 308 299 276 223 235 351 266 258 234 281 209 208 214 147 163 159 85 189 168 161 223 228 226 245 217 210 182 215 252 270 249 212 241 264 263 258 256
338 327 317 313 311 294 281 338 355 294 186 202 192 241 299 294 262 195 166 144 129 199 188 201 180 216 212 209 223 221 216 231 224 198 171 230 253 241 269 247 250 256 258 252 242
348 337 322 303 319 249 321 203 214 282 292 243 250 244 248 342 309 259 165 162 159 205 140 121 226 228 192 202 229 220 239 254 266 171 189 291 267 230 233 252 230 253 254 245 249
351 345 328 312 257 268 258 295 291 275 276 279 229 253 227 200 238 225 166 172 188 184 204 214 200 179 183 186 217 229 231 235 219 151 204 328 284 225 249 246 251 252 260 280 249
357 355 346 40 229 356 16 318 289 277 323 276 247 288 225 205 248 219 177 183 217 216 168 236 246 195 206 234 199 236 215 194 174 130 250 105 276 275 236 245 238 258 240 258 273
1 22 43 278 128 57 341 299 307 176 316 324 332 310 343 214 338 30 21 98 211 201 151 227 185 191 223 223 182 244 184 191 196 204 127 218 252 266 349 267 256 230 211 284 299
352 357 337 325 8 17 321 347 350 39 253 318 327 350 353 261 334 9 20 38 25 266 247 274 326 187 189 79 188 150 91 66 75 119 196 203 170 265 192 216 206 178 40 3 350
346 339 352 337 342 344 115 106 48 192 339 310 330 358 318 273 245 177 166 228 198 168 240 232 208 207 164 112 60 206 148 151 18 159 232 172 172 250 272 227 191 155 119 87 61
343 320 333 25 358 242 57 116 230 213 245 339 347 305 258 198 246 217 198 223 230 319 73 228 248 173 178 213 180 191 210 157 198 193 239 115 219 250 254 304 221 139 128 110 67
343 332 312 334 348 191 165 235 232 230 307 336 326 329 302 341 229 265 230 243 223 189 219 204 251 68 15 102 111 198 218 153 90 141 85 227 269 296 227 278 112 135 124 119 110
338 312 308 348 14 127 258 259 244 227 257 209 212 320 267 306 349 8 303 226 269 208 109 291 288 17 8 101 80 219 204 83 193 166 215 244 261 235 174 193 183 160 146 133 119
345 5 336 347 17 217 231 234 276 247 230 240 247 256 248 264 198 217 241 280 0 2 141 350 270 19 22 214 190 130 172 125 136 202 195 233 249 213 232 196 170 168 151 114 68
44 344 9 321 353 242 249 208 256 268 218 266 251 249 237 273 242 226 241 235 214 84 15 201 227 261 226 33 354 355 213 197 196 203 238 141 258 316 248 165 150 150 155 97 78
146 244 322 282 244 252 299 280 274 280 239 239 267 260 196 295 287 230 277 16 348 186 173 247 206 307 310 347 12 210 200 197 169 77 198 199 257 0 78 107 136 134 123 88 78
95 322 314 268 158 245 294 274 271 299 276 285 266 281 289 243 222 280 285 346 340 343 332 324 198 209 200 158 101 309 281 204 163 225 219 238 318 318 131 139 162 140 81 108 100
154 231 197 254 292 202 292 305 297 307 286 281 285 13 1 289 319 345 5 321 4 8 339 286 261 188 263 230 194 225 221 221 214 234 223 253 243 231 222 179 158 114 215 140 120
180 177 244 243 147 208 233 231 230 258 202 267 244 351 10 297 294 325 357 349 292 320 11 327 289 346 274 254 217 247 236 221 228 247 249 259 270 260 281 175 185 197 207 172 178
189 171 156 184 177 171 208 210 213 163 251 225 164 291 283 276 211 252 245 250 249 268 203 248 289 289 265 325 185 269 233 210 200 211 227 236 258 191 207 324 288 233 177 154 125